This demonstration page uses our WeatherBlox Daily Observations layout. Learn more.

Left ArrowRight Arrow

41.12389, -100.76542

Hourly Observations for February 14, 2017

Temp ( °F °C ) Dew Point ( °F °C ) Humidity (%) Winds ( mph kmh ) Pressure ( in mb ) Visibility ( mi km ) Precip ( " mm )
12:53 am 00:53 Clear 31 -0.6 21 -6.1 67 67 WNW 9 15 30.22 1023 10 16 0.00 0.00
1:53 am 01:53 Clear 24 -4.4 19 -7.2 81 81 Calm 30.23 1024 10 16 0.00 0.00
2:53 am 02:53 Clear 25 -3.9 20 -6.7 81 81 W 7 11 30.23 1024 10 16 0.00 0.00
3:53 am 03:53 Clear 21 -6.1 17 -8.3 85 85 Calm 30.23 1024 10 16 0.00 0.00
4:53 am 04:53 Clear 22 -5.6 19 -7.2 89 89 NW 5 7 30.25 1024 10 16 0.00 0.00
5:53 am 05:53 Clear 23 -5 19 -7.2 85 85 NW 9 15 30.24 1024 10 16 0.00 0.00
6:53 am 06:53 Clear 21 -6.1 18 -7.8 88 88 NW 8 13 30.26 1025 10 16 0.00 0.00
7:53 am 07:53 Sunny 22 -5.6 18 -7.8 85 85 W 8 13 30.28 1025 10 16 0.00 0.00
8:53 am 08:53 Sunny 27 -2.8 23 -5 85 85 W 8 13 30.29 1026 10 16 0.00 0.00
9:53 am 09:53 Sunny 33 0.6 26 -3.3 75 75 WNW 10 17 30.27 1025 10 16 0.00 0.00
10:53 am 10:53 Sunny 42 5.6 26 -3.3 53 53 WNW 12 19 30.22 1023 10 16 0.00 0.00
11:53 am 11:53 Sunny 51 10.6 21 -6.1 31 31 NW 18 30 30.19 1022 10 16 0.00 0.00
12:53 pm 12:53 Sunny 53 11.7 21 -6.1 28 28 N 22 35 30.18 1022 10 16 0.00 0.00
1:53 pm 13:53 Sunny 54 12.2 21 -6.1 28 28 NNW 26 43 30.16 1021 10 16 0.00 0.00
2:53 pm 14:53 Sunny 53 11.7 23 -5 31 31 NNW 24 39 30.14 1021 10 16 0.00 0.00
3:53 pm 15:53 Sunny 52 11.1 23 -5 32 32 N 23 37 30.15 1021 10 16 0.00 0.00
4:53 pm 16:53 Sunny 50 10 24 -4.4 36 36 N 20 31 30.17 1022 10 16 0.00 0.00
5:53 pm 17:53 Sunny 44 6.7 22 -5.6 41 41 N 12 19 30.20 1023 10 16 0.00 0.00
6:53 pm 18:53 Clear 36 2.2 21 -6.1 55 55 N 6 9 30.24 1024 10 16 0.00 0.00
7:53 pm 19:53 Clear 32 0 21 -6.1 64 64 N 6 9 30.25 1024 10 16 0.00 0.00
8:53 pm 20:53 Clear 25 -3.9 19 -7.2 78 78 W 5 7 30.27 1025 10 16 0.00 0.00
9:53 pm 21:53 Clear 23 -5 18 -7.8 81 81 NW 6 9 30.27 1025 10 16 0.00 0.00
10:53 pm 22:53 Clear 24 -4.4 19 -7.2 81 81 NW 3 6 30.24 1024 10 16 0.00 0.00
11:53 pm 23:53 Clear 23 -5 19 -7.2 85 85 NNW 3 6 30.23 1024 10 16 0.00 0.00

Powered by AerisWeather